This is the latest recevied weather packets stored in our database for station/object OK1LPD-5. If no packets are shown the sender has not sent any weather packets the latest 10 day(s).
| Time | Temp. | Humidity | Pressure | Rain* | Wind** | Luminosity | Snow |
|---|---|---|---|---|---|---|---|
| 1777731011 | 25.56° C | 28% | 1012 hPa | 0 mm | - | - | - |
| 1777730409 | 26.11° C | 28% | 1012 hPa | 0 mm | - | - | - |
| 1777729809 | 26.67° C | 27% | 1012 hPa | 0 mm | - | - | - |
| 1777729211 | 27.78° C | 26% | 1012.2 hPa | 0 mm | - | - | - |
| 1777728609 | 27.78° C | 28% | 1012.2 hPa | 0 mm | - | - | - |
| 1777728008 | 27.78° C | 31% | 1012.3 hPa | 0 mm | - | - | - |
| 1777727414 | 27.78° C | 29% | 1012.6 hPa | 0 mm | - | - | - |
| 1777726808 | 27.22° C | 28% | 1012.8 hPa | 0 mm | - | - | - |
| 1777726209 | 26.67° C | 29% | 1012.8 hPa | 0 mm | - | - | - |
| 1777725611 | 27.22° C | 31% | 1013.1 hPa | 0 mm | - | - | - |
| 1777725008 | 26.67° C | 30% | 1013.3 hPa | 0 mm | - | - | - |
| 1777724408 | 26.67° C | 30% | 1013.6 hPa | 0 mm | - | - | - |
| 1777723811 | 26.11° C | 34% | 1013.8 hPa | 0 mm | - | - | - |
| 1777723209 | 25.56° C | 33% | 1014.1 hPa | 0 mm | - | - | - |
| 1777722608 | 25.56° C | 30% | 1014.4 hPa | 0 mm | - | - | - |
| 1777722012 | 25.56° C | 33% | 1014.6 hPa | 0 mm | - | - | - |
| 1777721408 | 25° C | 34% | 1015 hPa | 0 mm | - | - | - |
| 1777720809 | 24.44° C | 38% | 1015.1 hPa | 0 mm | - | - | - |
| 1777720208 | 23.89° C | 38% | 1015.5 hPa | 0 mm | - | - | - |
| 1777719610 | 23.33° C | 38% | 1015.7 hPa | 0 mm | - | - | - |
| 1777719010 | 22.78° C | 39% | 1015.9 hPa | 0 mm | - | - | - |
| 1777718413 | 22.78° C | 40% | 1016 hPa | 0 mm | - | - | - |
| 1777717811 | 22.22° C | 42% | 1016.2 hPa | 0 mm | - | - | - |
| 1777717209 | 22.22° C | 42% | 1016.5 hPa | 0 mm | - | - | - |
| 1777716609 | 22.22° C | 44% | 1016.8 hPa | 0 mm | - | - | - |
* Rain latest hour (hover to see other rain measurements)
** Current wind speed in m/s (hover to see current wind gust speed)